Hourly Data Report for November 28, 2021

VICTORIA UNIVERSITY CS
BRITISH COLUMBIA
Current Station Operator: ECCC - MSC

48°27'25.200" N
123°18'16.600" W
60.10 m
1018598
71783
WYJ

Download Data

Hourly Data (November 2021)
Hourly Data Report for November 28, 2021
TIME
LST
Temp Definition
°C
Dew Point Definition
°C
Rel Hum Definition
%
Precip. Amount Definition
mm

Wind Dir Definition
10's deg

Wind Spd Definition
km/h
Visibility Definition
km
Stn Press Definition
kPa
Hmdx Definition


Wind Chill Definition


Weather Definition


00:00 10.5 10.4 99 0.0 16 5   100.39     LegendNANA
01:00 11.1 10.9 99 0.0 14 4   100.49     LegendNANA
02:00 11.4 11.3 100 0.0 5 3   100.50     LegendNANA
03:00 11.7 11.5 99 0.2 35 2   100.57     LegendNANA
04:00 12.0 11.3 95 0.0 13 3   100.62     LegendNANA
05:00 11.6 11.5 99 0.0 10 3   100.64     LegendNANA
06:00 11.1 11.1 100 0.2 19 3   100.66     LegendNANA
07:00 10.9 10.9 100 2.4   0   100.68     LegendNANA
08:00 11.1 11.1 100 3.8 16 3   100.75     LegendNANA
09:00 12.2 12.2 100 4.2 26 8   100.81     LegendNANA
10:00 12.1 11.5 96 2.5 25 8   100.89     LegendNANA
11:00 11.8 11.5 98 2.0 25 8   100.93     LegendNANA
12:00 11.6 11.6 100 2.9 23 8   100.95     LegendNANA
13:00 11.7 11.6 100 0.2 23 7   100.92     LegendNANA
14:00 12.0 11.8 99 0.0 24 9   100.99     LegendNANA
15:00 11.9 11.5 97 0.0 25 9   101.02     LegendNANA
16:00 11.9 11.0 94 0.0 26 10   101.06     LegendNANA
17:00 11.9 11.0 94 0.0 25 10   101.13     LegendNANA
18:00 11.8 11.0 95 0.0 24 8   101.19     LegendNANA
19:00 11.3 10.6 95 0.0 21 4   101.20     LegendNANA
20:00 11.2 11.2 100 0.0 22 6   101.31     LegendNANA
21:00 11.2 11.2 100 0.0 23 6   101.34     LegendNANA
22:00 11.0 10.9 100 0.0 22 4   101.37     LegendNANA
23:00 11.1 11.1 100 0.0 19 5   101.38     LegendNANA

Notes on Data Quality.

Legend

  • E = Estimated
  • M = Missing
  • NA = Not Available*
  • [empty] = Indicates an unobserved value
Date modified: